Time,TemperatureF,DewpointF,PressureIn,WindDirection,WindDirectionDegrees,WindSpeedMPH,WindSpeedGustMPH,Humidity,HourlyPrecipIn,Conditions,Clouds,dailyrainin,SoftwareType,DateUTC
2013-09-24 00:04:00,47.2,45.0,30.09,NE,46,0.0,0.0,92,0.00,,,0.00,VWS V12.07,2013-09-24 05:04:00,
2013-09-24 00:14:00,47.1,45.2,30.09,NE,46,0.0,1.0,93,0.00,,,0.00,VWS V12.07,2013-09-24 05:14:00,
2013-09-24 00:19:00,47.0,45.1,30.09,NE,46,0.0,1.0,93,0.00,,,0.00,VWS V12.07,2013-09-24 05:19:00,
2013-09-24 00:24:00,46.9,45.0,30.09,NE,45,0.0,1.0,93,0.00,,,0.00,VWS V12.07,2013-09-24 05:24:00,
2013-09-24 00:34:00,46.7,44.8,30.09,NE,46,0.0,0.0,93,0.00,,,0.00,VWS V12.07,2013-09-24 05:34:00,
2013-09-24 00:39:00,46.6,44.7,30.09,NE,46,0.0,0.0,93,0.00,,,0.00,VWS V12.07,2013-09-24 05:39:00,
2013-09-24 00:44:00,46.5,44.6,30.09,NE,45,0.0,0.0,93,0.00,,,0.00,VWS V12.07,2013-09-24 05:44:00,
2013-09-24 00:49:00,46.4,44.5,30.09,NE,45,0.0,0.0,93,0.00,,,0.00,VWS V12.07,2013-09-24 05:49:00,
2013-09-24 00:59:00,46.3,44.4,30.09,NE,45,0.0,0.0,93,0.00,,,0.00,VWS V12.07,2013-09-24 05:59:00,
2013-09-24 01:04:00,46.2,44.3,30.09,NE,45,0.0,0.0,93,0.00,,,0.00,VWS V12.07,2013-09-24 06:04:00,
2013-09-24 01:09:00,46.1,44.2,30.09,NE,46,0.0,0.0,93,0.00,,,0.00,VWS V12.07,2013-09-24 06:09:00,
2013-09-24 01:14:00,46.0,44.1,30.09,NE,46,0.0,0.0,93,0.00,,,0.00,VWS V12.07,2013-09-24 06:14:00,
2013-09-24 01:24:00,45.7,43.8,30.10,NE,46,0.0,0.0,93,0.00,,,0.00,VWS V12.07,2013-09-24 06:24:00,
2013-09-24 01:34:00,45.5,43.6,30.10,NE,46,0.0,0.0,93,0.00,,,0.00,VWS V12.07,2013-09-24 06:34:00,
2013-09-24 01:39:00,45.4,43.5,30.10,NE,45,0.0,0.0,93,0.00,,,0.00,VWS V12.07,2013-09-24 06:39:00,
2013-09-24 01:44:00,45.3,43.4,30.10,NE,46,0.0,0.0,93,0.00,,,0.00,VWS V12.07,2013-09-24 06:44:00,
2013-09-24 01:49:00,45.2,43.3,30.10,NE,46,0.0,0.0,93,0.00,,,0.00,VWS V12.07,2013-09-24 06:49:00,
2013-09-24 01:54:00,45.1,43.2,30.10,NE,46,0.0,0.0,93,0.00,,,0.00,VWS V12.07,2013-09-24 06:54:00,
2013-09-24 01:59:00,45.0,43.1,30.10,NE,46,0.0,0.0,93,0.00,,,0.00,VWS V12.07,2013-09-24 06:59:00,
2013-09-24 02:04:00,45.0,43.1,30.09,NE,46,0.0,0.0,93,0.00,,,0.00,VWS V12.07,2013-09-24 07:04:00,
2013-09-24 02:09:00,44.8,42.9,30.09,NE,46,0.0,0.0,93,0.00,,,0.00,VWS V12.07,2013-09-24 07:09:00,
2013-09-24 02:14:00,44.7,42.8,30.09,NE,46,0.0,0.0,93,0.00,,,0.00,VWS V12.07,2013-09-24 07:14:00,
2013-09-24 02:24:00,44.5,42.6,30.09,NE,46,0.0,0.0,93,0.00,,,0.00,VWS V12.07,2013-09-24 07:24:00,
2013-09-24 02:34:00,44.4,42.5,30.09,NE,46,0.0,0.0,93,0.00,,,0.00,VWS V12.07,2013-09-24 07:34:00,
2013-09-24 02:39:00,44.4,42.5,30.09,NE,46,0.0,0.0,93,0.00,,,0.00,VWS V12.07,2013-09-24 07:39:00,
2013-09-24 02:44:00,44.4,42.5,30.09,NE,46,0.0,0.0,93,0.00,,,0.00,VWS V12.07,2013-09-24 07:44:00,
2013-09-24 02:49:00,44.4,42.5,30.10,NE,45,0.0,0.0,93,0.00,,,0.00,VWS V12.07,2013-09-24 07:49:00,
2013-09-24 02:59:00,44.4,42.5,30.10,NE,46,0.0,0.0,93,0.00,,,0.00,VWS V12.07,2013-09-24 07:59:00,
2013-09-24 03:04:00,44.3,42.4,30.10,NE,46,0.0,0.0,93,0.00,,,0.00,VWS V12.07,2013-09-24 08:04:00,
2013-09-24 03:09:00,44.1,42.2,30.11,NE,46,0.0,0.0,93,0.00,,,0.00,VWS V12.07,2013-09-24 08:09:00,
2013-09-24 03:19:00,43.8,41.9,30.11,NE,46,0.0,0.0,93,0.00,,,0.00,VWS V12.07,2013-09-24 08:19:00,
2013-09-24 03:24:00,43.8,41.9,30.11,NE,46,0.0,0.0,93,0.00,,,0.00,VWS V12.07,2013-09-24 08:24:00,
2013-09-24 03:29:00,43.7,41.8,30.11,NE,46,0.0,0.0,93,0.00,,,0.00,VWS V12.07,2013-09-24 08:29:00,
2013-09-24 03:34:00,43.6,41.7,30.11,NE,46,0.0,0.0,93,0.00,,,0.00,VWS V12.07,2013-09-24 08:34:00,
2013-09-24 03:39:00,43.4,41.5,30.11,NE,46,0.0,0.0,93,0.00,,,0.00,VWS V12.07,2013-09-24 08:39:00,
2013-09-24 03:44:00,43.4,41.5,30.11,NE,46,0.0,0.0,93,0.00,,,0.00,VWS V12.07,2013-09-24 08:44:00,
2013-09-24 03:54:00,43.3,41.4,30.12,NE,45,0.0,0.0,93,0.00,,,0.00,VWS V12.07,2013-09-24 08:54:00,
2013-09-24 03:59:00,43.2,41.3,30.12,NE,45,0.0,0.0,93,0.00,,,0.00,VWS V12.07,2013-09-24 08:59:00,
2013-09-24 04:09:00,43.1,41.2,30.11,NE,45,0.0,0.0,93,0.00,,,0.00,VWS V12.07,2013-09-24 09:09:00,
2013-09-24 04:14:00,43.2,41.3,30.11,NE,46,0.0,0.0,93,0.00,,,0.00,VWS V12.07,2013-09-24 09:14:00,
2013-09-24 04:19:00,43.2,41.6,30.11,NE,45,0.0,0.0,94,0.00,,,0.00,VWS V12.07,2013-09-24 09:19:00,
2013-09-24 04:24:00,43.2,41.3,30.11,NE,46,0.0,0.0,93,0.00,,,0.00,VWS V12.07,2013-09-24 09:24:00,
2013-09-24 04:29:00,43.2,41.3,30.11,NE,45,0.0,0.0,93,0.00,,,0.00,VWS V12.07,2013-09-24 09:29:00,
2013-09-24 04:34:00,43.2,41.6,30.11,NE,46,0.0,0.0,94,0.00,,,0.00,VWS V12.07,2013-09-24 09:34:00,
2013-09-24 04:39:00,43.2,41.6,30.11,NE,46,0.0,0.0,94,0.00,,,0.00,VWS V12.07,2013-09-24 09:39:00,
2013-09-24 04:49:00,43.3,41.7,30.11,NE,46,0.0,0.0,94,0.00,,,0.00,VWS V12.07,2013-09-24 09:49:00,
2013-09-24 04:54:00,43.4,41.8,30.11,NE,45,0.0,0.0,94,0.00,,,0.00,VWS V12.07,2013-09-24 09:54:00,
2013-09-24 05:04:00,43.5,41.9,30.11,NE,46,0.0,0.0,94,0.00,,,0.00,VWS V12.07,2013-09-24 10:04:00,
2013-09-24 05:09:00,43.8,42.2,30.11,NE,45,0.0,0.0,94,0.00,,,0.00,VWS V12.07,2013-09-24 10:09:00,
2013-09-24 05:14:00,44.0,42.4,30.11,NE,46,0.0,0.0,94,0.00,,,0.00,VWS V12.07,2013-09-24 10:14:00,
2013-09-24 05:24:00,44.3,42.7,30.11,NE,46,0.0,0.0,94,0.00,,,0.00,VWS V12.07,2013-09-24 10:24:00,
2013-09-24 05:34:00,44.2,42.6,30.11,NE,46,0.0,0.0,94,0.00,,,0.00,VWS V12.07,2013-09-24 10:34:00,
2013-09-24 05:39:00,44.2,42.6,30.11,NE,45,0.0,0.0,94,0.00,,,0.00,VWS V12.07,2013-09-24 10:39:00,
2013-09-24 05:44:00,44.1,42.5,30.12,NE,46,0.0,0.0,94,0.00,,,0.00,VWS V12.07,2013-09-24 10:44:00,
2013-09-24 05:49:00,44.2,42.6,30.12,NE,45,0.0,0.0,94,0.00,,,0.00,VWS V12.07,2013-09-24 10:49:00,
2013-09-24 05:54:00,44.2,42.6,30.12,NE,46,0.0,0.0,94,0.00,,,0.00,VWS V12.07,2013-09-24 10:54:00,
2013-09-24 05:59:00,44.2,42.6,30.12,NE,45,0.0,0.0,94,0.00,,,0.00,VWS V12.07,2013-09-24 10:59:00,
2013-09-24 06:09:00,44.1,42.5,30.12,NE,45,0.0,0.0,94,0.00,,,0.00,VWS V12.07,2013-09-24 11:09:00,
2013-09-24 06:14:00,44.0,42.4,30.12,NE,46,0.0,0.0,94,0.00,,,0.00,VWS V12.07,2013-09-24 11:14:00,
2013-09-24 06:19:00,44.0,42.4,30.12,NE,46,0.0,0.0,94,0.00,,,0.00,VWS V12.07,2013-09-24 11:19:00,
2013-09-24 06:24:00,43.9,42.3,30.13,NE,45,0.0,0.0,94,0.00,,,0.00,VWS V12.07,2013-09-24 11:24:00,
2013-09-24 06:34:00,44.0,42.4,30.12,NE,46,0.0,0.0,94,0.00,,,0.00,VWS V12.07,2013-09-24 11:34:00,
2013-09-24 06:39:00,44.0,42.4,30.12,NE,45,0.0,0.0,94,0.00,,,0.00,VWS V12.07,2013-09-24 11:39:00,
2013-09-24 06:44:00,44.1,42.5,30.12,NE,46,0.0,0.0,94,0.00,,,0.00,VWS V12.07,2013-09-24 11:44:00,
2013-09-24 06:49:00,44.1,42.5,30.12,NE,46,0.0,0.0,94,0.00,,,0.00,VWS V12.07,2013-09-24 11:49:00,
2013-09-24 06:54:00,44.2,42.6,30.12,NE,46,0.0,0.0,94,0.00,,,0.00,VWS V12.07,2013-09-24 11:54:00,
2013-09-24 07:04:00,44.7,43.4,30.12,NE,46,0.0,0.0,95,0.00,,,0.00,VWS V12.07,2013-09-24 12:04:00,
2013-09-24 07:09:00,44.9,43.6,30.12,NE,46,0.0,0.0,95,0.00,,,0.00,VWS V12.07,2013-09-24 12:09:00,
2013-09-24 07:14:00,45.0,43.7,30.12,NE,45,0.0,0.0,95,0.00,,,0.00,VWS V12.07,2013-09-24 12:14:00,
2013-09-24 07:24:00,45.2,43.9,30.12,NE,45,0.0,0.0,95,0.00,,,0.00,VWS V12.07,2013-09-24 12:24:00,
2013-09-24 07:29:00,45.2,43.9,30.12,NE,46,0.0,0.0,95,0.00,,,0.00,VWS V12.07,2013-09-24 12:29:00,
2013-09-24 07:34:00,45.3,44.0,30.12,NE,46,0.0,0.0,95,0.00,,,0.00,VWS V12.07,2013-09-24 12:34:00,
2013-09-24 07:44:00,45.3,44.0,30.12,NE,46,0.0,0.0,95,0.00,,,0.00,VWS V12.07,2013-09-24 12:44:00,
2013-09-24 07:49:00,45.3,44.0,30.12,NE,46,0.0,0.0,95,0.00,,,0.00,VWS V12.07,2013-09-24 12:49:00,
2013-09-24 07:54:00,45.3,44.0,30.12,NE,45,0.0,0.0,95,0.00,,,0.00,VWS V12.07,2013-09-24 12:54:00,
2013-09-24 07:59:00,45.4,44.0,30.12,NE,45,0.0,0.0,95,0.00,,,0.00,VWS V12.07,2013-09-24 12:59:00,
2013-09-24 08:04:00,45.5,44.2,30.12,NE,45,0.0,0.0,95,0.00,,,0.00,VWS V12.07,2013-09-24 13:04:00,
2013-09-24 08:09:00,45.7,44.3,30.12,NE,46,0.0,0.0,95,0.00,,,0.00,VWS V12.07,2013-09-24 13:09:00,
2013-09-24 08:19:00,46.0,44.7,30.12,NE,46,0.0,0.0,95,0.00,,,0.00,VWS V12.07,2013-09-24 13:19:00,
2013-09-24 08:24:00,46.1,44.8,30.12,NE,45,0.0,0.0,95,0.00,,,0.00,VWS V12.07,2013-09-24 13:24:00,
2013-09-24 08:29:00,46.3,45.0,30.12,NE,45,0.0,0.0,95,0.00,,,0.00,VWS V12.07,2013-09-24 13:29:00,
2013-09-24 08:34:00,46.5,45.2,30.12,NE,46,0.0,0.0,95,0.00,,,0.00,VWS V12.07,2013-09-24 13:34:00,
2013-09-24 08:39:00,46.6,45.2,30.12,NE,45,0.0,0.0,95,0.00,,,0.00,VWS V12.07,2013-09-24 13:39:00,
2013-09-24 08:49:00,46.9,45.5,30.12,NE,46,0.0,0.0,95,0.00,,,0.00,VWS V12.07,2013-09-24 13:49:00,
2013-09-24 08:54:00,47.1,45.7,30.12,NE,46,0.0,0.0,95,0.00,,,0.00,VWS V12.07,2013-09-24 13:54:00,
2013-09-24 08:59:00,47.4,46.0,30.12,NE,46,0.0,1.0,95,0.00,,,0.00,VWS V12.07,2013-09-24 13:59:00,
2013-09-24 09:04:00,47.7,46.3,30.12,NE,46,0.0,0.0,95,0.00,,,0.00,VWS V12.07,2013-09-24 14:04:00,
2013-09-24 09:09:00,47.9,46.8,30.12,NE,45,0.0,1.0,96,0.00,,,0.00,VWS V12.07,2013-09-24 14:09:00,
2013-09-24 09:14:00,48.2,46.8,30.11,NE,45,0.0,1.0,95,0.00,,,0.00,VWS V12.07,2013-09-24 14:14:00,
2013-09-24 09:19:00,48.5,47.4,30.11,NE,45,0.0,1.0,96,0.00,,,0.00,VWS V12.07,2013-09-24 14:19:00,
2013-09-24 09:24:00,48.7,47.6,30.11,NE,45,0.0,1.0,96,0.00,,,0.00,VWS V12.07,2013-09-24 14:24:00,
2013-09-24 09:29:00,49.1,48.0,30.11,NE,45,0.0,1.0,96,0.00,,,0.00,VWS V12.07,2013-09-24 14:29:00,
2013-09-24 09:39:00,49.6,48.5,30.11,NE,45,0.0,1.0,96,0.00,,,0.00,VWS V12.07,2013-09-24 14:39:00,
2013-09-24 09:44:00,49.8,48.7,30.11,NE,45,0.0,1.0,96,0.00,,,0.00,VWS V12.07,2013-09-24 14:44:00,
2013-09-24 09:49:00,50.1,49.0,30.11,NE,44,0.0,1.0,96,0.00,,,0.00,VWS V12.07,2013-09-24 14:49:00,
2013-09-24 09:54:00,50.4,49.3,30.11,NE,44,0.0,1.0,96,0.00,,,0.00,VWS V12.07,2013-09-24 14:54:00,
2013-09-24 10:04:00,51.0,49.9,30.11,NE,44,0.0,0.0,96,0.00,,,0.00,VWS V12.07,2013-09-24 15:04:00,
2013-09-24 10:14:00,51.5,50.4,30.10,NE,44,0.0,1.0,96,0.00,,,0.00,VWS V12.07,2013-09-24 15:14:00,
2013-09-24 10:19:00,51.7,50.6,30.11,NE,44,0.0,1.0,96,0.00,,,0.00,VWS V12.07,2013-09-24 15:19:00,
2013-09-24 10:29:00,52.1,51.0,30.11,NE,44,0.0,1.0,96,0.00,,,0.00,VWS V12.07,2013-09-24 15:29:00,
2013-09-24 10:34:00,52.4,51.3,30.10,NE,44,0.0,0.0,96,0.00,,,0.00,VWS V12.07,2013-09-24 15:34:00,
2013-09-24 10:39:00,52.6,51.5,30.10,NE,44,0.0,1.0,96,0.00,,,0.00,VWS V12.07,2013-09-24 15:39:00,
2013-09-24 10:49:00,53.0,51.9,30.10,NE,44,0.0,1.0,96,0.00,,,0.00,VWS V12.07,2013-09-24 15:49:00,
2013-09-24 10:54:00,53.2,52.1,30.10,NE,44,0.0,1.0,96,0.00,,,0.00,VWS V12.07,2013-09-24 15:54:00,
2013-09-24 11:04:00,53.8,52.7,30.10,NE,44,0.0,0.0,96,0.00,,,0.00,VWS V12.07,2013-09-24 16:04:00,
2013-09-24 11:09:00,54.1,52.7,30.10,NE,44,0.0,1.0,95,0.00,,,0.00,VWS V12.07,2013-09-24 16:09:00,
2013-09-24 11:14:00,54.4,53.0,30.10,NE,44,0.0,1.0,95,0.00,,,0.00,VWS V12.07,2013-09-24 16:14:00,
2013-09-24 11:19:00,54.7,53.0,30.09,NE,44,0.0,1.0,94,0.00,,,0.00,VWS V12.07,2013-09-24 16:19:00,
2013-09-24 11:24:00,55.1,53.4,30.09,NE,44,0.0,1.0,94,0.00,,,0.00,VWS V12.07,2013-09-24 16:24:00,
2013-09-24 11:29:00,55.4,53.4,30.09,NE,44,0.0,1.0,93,0.00,,,0.00,VWS V12.07,2013-09-24 16:29:00,
2013-09-24 11:34:00,55.8,53.8,30.09,NE,44,0.0,1.0,93,0.00,,,0.00,VWS V12.07,2013-09-24 16:34:00,
2013-09-24 11:39:00,56.3,54.0,30.09,NE,44,0.0,1.0,92,0.00,,,0.00,VWS V12.07,2013-09-24 16:39:00,
2013-09-24 11:44:00,56.7,54.4,30.08,NE,44,0.0,1.0,92,0.00,,,0.00,VWS V12.07,2013-09-24 16:44:00,
2013-09-24 11:49:00,57.1,54.5,30.09,NE,44,1.0,1.0,91,0.00,,,0.00,VWS V12.07,2013-09-24 16:49:00,
2013-09-24 11:54:00,57.5,54.3,30.08,NW,315,0.0,2.0,89,0.00,,,0.00,VWS V12.07,2013-09-24 16:54:00,
2013-09-24 11:59:00,58.0,54.8,30.08,NW,313,0.0,2.0,89,0.00,,,0.00,VWS V12.07,2013-09-24 16:59:00,
2013-09-24 12:04:00,58.4,55.2,30.08,WNW,301,0.0,1.0,89,0.00,,,0.00,VWS V12.07,2013-09-24 17:04:00,
2013-09-24 12:09:00,59.0,55.1,30.08,WNW,301,0.0,3.0,87,0.00,,,0.00,VWS V12.07,2013-09-24 17:09:00,
2013-09-24 12:19:00,59.7,55.2,30.08,NNE,24,0.0,4.0,85,0.00,,,0.00,VWS V12.07,2013-09-24 17:19:00,
2013-09-24 12:29:00,60.5,55.7,30.07,ENE,75,0.0,4.0,84,0.00,,,0.00,VWS V12.07,2013-09-24 17:29:00,
2013-09-24 12:34:00,60.7,55.5,30.07,NNE,17,0.0,1.0,83,0.00,,,0.00,VWS V12.07,2013-09-24 17:34:00,
2013-09-24 12:39:00,60.9,55.0,30.07,WNW,299,0.0,3.0,81,0.00,,,0.00,VWS V12.07,2013-09-24 17:39:00,
2013-09-24 12:44:00,61.1,55.6,30.07,NW,309,0.0,3.0,82,0.00,,,0.00,VWS V12.07,2013-09-24 17:44:00,
2013-09-24 12:54:00,61.4,54.1,30.06,NW,311,0.0,3.0,77,0.00,,,0.00,VWS V12.07,2013-09-24 17:54:00,
2013-09-24 12:59:00,61.6,54.0,30.06,WNW,300,0.0,3.0,76,0.00,,,0.00,VWS V12.07,2013-09-24 17:59:00,
2013-09-24 13:09:00,62.3,55.7,30.06,WNW,299,0.0,3.0,79,0.00,,,0.00,VWS V12.07,2013-09-24 18:09:00,
2013-09-24 13:14:00,62.5,54.8,30.06,WNW,299,0.0,3.0,76,0.00,,,0.00,VWS V12.07,2013-09-24 18:14:00,
2013-09-24 13:19:00,62.6,54.2,30.06,WNW,300,0.0,3.0,74,0.00,,,0.00,VWS V12.07,2013-09-24 18:19:00,
2013-09-24 13:24:00,62.7,54.3,30.05,WNW,300,0.0,3.0,74,0.00,,,0.00,VWS V12.07,2013-09-24 18:24:00,
2013-09-24 13:34:00,63.0,54.2,30.05,WNW,286,0.0,4.0,73,0.00,,,0.00,VWS V12.07,2013-09-24 18:34:00,
2013-09-24 13:39:00,63.2,55.2,30.05,North,349,0.0,4.0,75,0.00,,,0.00,VWS V12.07,2013-09-24 18:39:00,
2013-09-24 13:44:00,63.3,54.5,30.05,North,355,0.0,4.0,73,0.00,,,0.00,VWS V12.07,2013-09-24 18:44:00,
2013-09-24 13:49:00,63.5,55.1,30.05,North,355,0.0,4.0,74,0.00,,,0.00,VWS V12.07,2013-09-24 18:49:00,
2013-09-24 13:59:00,63.7,56.0,30.05,WNW,299,0.0,4.0,76,0.00,,,0.00,VWS V12.07,2013-09-24 18:59:00,
2013-09-24 14:04:00,63.8,54.6,30.05,WNW,299,0.0,2.0,72,0.00,,,0.00,VWS V12.07,2013-09-24 19:04:00,
2013-09-24 14:09:00,63.9,52.3,30.05,North,355,0.0,3.0,66,0.00,,,0.00,VWS V12.07,2013-09-24 19:09:00,
2013-09-24 14:14:00,64.3,52.7,30.05,North,355,0.0,3.0,66,0.00,,,0.00,VWS V12.07,2013-09-24 19:14:00,
2013-09-24 14:19:00,64.4,54.0,30.05,NNW,333,0.0,3.0,69,0.00,,,0.00,VWS V12.07,2013-09-24 19:19:00,
2013-09-24 14:24:00,64.5,54.9,30.05,SSW,205,0.0,3.0,71,0.00,,,0.00,VWS V12.07,2013-09-24 19:24:00,
2013-09-24 14:34:00,64.2,55.0,30.04,WNW,291,0.0,2.0,72,0.00,,,0.00,VWS V12.07,2013-09-24 19:34:00,
2013-09-24 14:39:00,64.2,55.8,30.04,WNW,291,0.0,2.0,74,0.00,,,0.00,VWS V12.07,2013-09-24 19:39:00,
2013-09-24 14:44:00,64.2,55.4,30.04,WNW,291,0.0,2.0,73,0.00,,,0.00,VWS V12.07,2013-09-24 19:44:00,
2013-09-24 14:54:00,64.1,53.3,30.03,North,360,0.0,2.0,68,0.00,,,0.00,VWS V12.07,2013-09-24 19:54:00,
2013-09-24 14:59:00,64.3,54.3,30.03,North,360,0.0,2.0,70,0.00,,,0.00,VWS V12.07,2013-09-24 19:59:00,
2013-09-24 15:09:00,64.4,55.2,30.03,North,355,1.0,1.0,72,0.00,,,0.00,VWS V12.07,2013-09-24 20:09:00,
2013-09-24 15:14:00,64.4,54.4,30.03,NW,315,0.0,2.0,70,0.00,,,0.00,VWS V12.07,2013-09-24 20:14:00,
2013-09-24 15:24:00,64.4,55.9,30.03,North,355,0.0,2.0,74,0.00,,,0.00,VWS V12.07,2013-09-24 20:24:00,
2013-09-24 15:29:00,64.3,55.1,30.03,North,355,0.0,2.0,72,0.00,,,0.00,VWS V12.07,2013-09-24 20:29:00,
2013-09-24 15:39:00,64.5,54.9,30.02,NNW,335,0.0,2.0,71,0.00,,,0.00,VWS V12.07,2013-09-24 20:39:00,
2013-09-24 15:44:00,64.6,55.0,30.02,NW,324,0.0,2.0,71,0.00,,,0.00,VWS V12.07,2013-09-24 20:44:00,
2013-09-24 15:54:00,64.4,55.2,30.02,NNW,327,0.0,2.0,72,0.00,,,0.00,VWS V12.07,2013-09-24 20:54:00,
2013-09-24 16:04:00,64.1,55.3,30.02,NNW,327,0.0,0.0,73,0.00,,,0.00,VWS V12.07,2013-09-24 21:04:00,
2013-09-24 16:09:00,64.0,55.2,30.02,NW,326,0.0,3.0,73,0.00,,,0.00,VWS V12.07,2013-09-24 21:09:00,
2013-09-24 16:19:00,63.9,55.5,30.02,NW,326,0.0,3.0,74,0.00,,,0.00,VWS V12.07,2013-09-24 21:19:00,
2013-09-24 16:24:00,63.9,55.5,30.02,NNW,330,0.0,3.0,74,0.00,,,0.00,VWS V12.07,2013-09-24 21:24:00,
2013-09-24 16:29:00,63.9,55.5,30.02,NNW,330,1.0,3.0,74,0.00,,,0.00,VWS V12.07,2013-09-24 21:29:00,
2013-09-24 16:34:00,63.8,55.7,30.02,NNW,330,0.0,0.0,75,0.00,,,0.00,VWS V12.07,2013-09-24 21:34:00,
2013-09-24 16:44:00,63.7,56.0,30.02,NNW,330,0.0,2.0,76,0.00,,,0.00,VWS V12.07,2013-09-24 21:44:00,
2013-09-24 16:54:00,63.6,55.9,30.02,NNW,330,0.0,2.0,76,0.00,,,0.00,VWS V12.07,2013-09-24 21:54:00,
2013-09-24 16:59:00,63.6,55.9,30.02,NNW,330,0.0,2.0,76,0.00,,,0.00,VWS V12.07,2013-09-24 21:59:00,
2013-09-24 17:04:00,63.5,55.4,30.02,NNW,330,0.0,0.0,75,0.00,,,0.00,VWS V12.07,2013-09-24 22:04:00,
2013-09-24 17:09:00,63.4,55.0,30.02,NNW,330,0.0,0.0,74,0.00,,,0.00,VWS V12.07,2013-09-24 22:09:00,
2013-09-24 17:14:00,63.3,55.2,30.02,NNW,330,0.0,0.0,75,0.00,,,0.00,VWS V12.07,2013-09-24 22:14:00,
2013-09-24 17:19:00,63.1,55.4,30.02,NNW,330,0.0,0.0,76,0.00,,,0.00,VWS V12.07,2013-09-24 22:19:00,
2013-09-24 17:29:00,62.8,55.5,30.02,NNW,330,0.0,2.0,77,0.00,,,0.00,VWS V12.07,2013-09-24 22:29:00,
2013-09-24 17:34:00,62.6,55.7,30.02,NNW,330,0.0,0.0,78,0.00,,,0.00,VWS V12.07,2013-09-24 22:34:00,
2013-09-24 17:39:00,62.5,54.8,30.02,NNW,330,0.0,0.0,76,0.00,,,0.00,VWS V12.07,2013-09-24 22:39:00,
2013-09-24 17:44:00,62.3,55.0,30.02,NNW,330,0.0,0.0,77,0.00,,,0.00,VWS V12.07,2013-09-24 22:44:00,
2013-09-24 17:49:00,62.3,55.7,30.02,NNW,330,0.0,0.0,79,0.00,,,0.00,VWS V12.07,2013-09-24 22:49:00,
2013-09-24 17:54:00,62.1,55.2,30.02,NNW,330,0.0,0.0,78,0.00,,,0.00,VWS V12.07,2013-09-24 22:54:00,
2013-09-24 17:59:00,62.0,55.1,30.02,NNW,330,0.0,0.0,78,0.00,,,0.00,VWS V12.07,2013-09-24 22:59:00,
2013-09-24 18:04:00,61.8,54.9,30.01,NNW,330,0.0,0.0,78,0.00,,,0.00,VWS V12.07,2013-09-24 23:04:00,
2013-09-24 18:09:00,61.6,55.0,30.01,NNW,330,0.0,0.0,79,0.00,,,0.00,VWS V12.07,2013-09-24 23:09:00,
2013-09-24 18:14:00,61.4,54.8,30.01,NNW,330,0.0,0.0,79,0.00,,,0.00,VWS V12.07,2013-09-24 23:14:00,
2013-09-24 18:24:00,61.0,54.5,30.02,NNW,330,0.0,0.0,79,0.00,,,0.00,VWS V12.07,2013-09-24 23:24:00,
2013-09-24 18:34:00,60.5,54.3,30.02,NNW,330,0.0,0.0,80,0.00,,,0.00,VWS V12.07,2013-09-24 23:34:00,
2013-09-24 18:39:00,60.3,54.5,30.02,NNW,330,0.0,0.0,81,0.00,,,0.00,VWS V12.07,2013-09-24 23:39:00,
2013-09-24 18:44:00,60.0,54.5,30.02,NNW,330,0.0,0.0,82,0.00,,,0.00,VWS V12.07,2013-09-24 23:44:00,
2013-09-24 18:54:00,59.3,54.2,30.02,NNW,330,0.0,0.0,83,0.00,,,0.00,VWS V12.07,2013-09-24 23:54:00,
2013-09-24 18:59:00,59.0,53.8,30.02,NNW,330,0.0,0.0,83,0.00,,,0.00,VWS V12.07,2013-09-24 23:59:00,
2013-09-24 19:09:00,58.3,53.2,30.02,NNW,330,0.0,0.0,83,0.00,,,0.00,VWS V12.07,2013-09-25 00:09:00,
2013-09-24 19:14:00,57.9,53.1,30.02,NNW,330,0.0,0.0,84,0.00,,,0.00,VWS V12.07,2013-09-25 00:14:00,
2013-09-24 19:24:00,57.2,52.4,30.02,NNW,330,0.0,0.0,84,0.00,,,0.00,VWS V12.07,2013-09-25 00:24:00,
2013-09-24 19:29:00,56.9,52.4,30.02,NNW,330,0.0,0.0,85,0.00,,,0.00,VWS V12.07,2013-09-25 00:29:00,
2013-09-24 19:39:00,56.5,52.4,30.02,NNW,330,0.0,0.0,86,0.00,,,0.00,VWS V12.07,2013-09-25 00:39:00,
2013-09-24 19:44:00,56.3,52.2,30.02,NNW,330,0.0,0.0,86,0.00,,,0.00,VWS V12.07,2013-09-25 00:44:00,
2013-09-24 19:49:00,56.1,52.3,30.01,NNW,330,0.0,0.0,87,0.00,,,0.00,VWS V12.07,2013-09-25 00:49:00,
2013-09-24 19:59:00,55.7,51.9,30.02,NNW,330,0.0,0.0,87,0.00,,,0.00,VWS V12.07,2013-09-25 00:59:00,
2013-09-24 20:04:00,55.5,52.0,30.02,NNW,330,0.0,0.0,88,0.00,,,0.00,VWS V12.07,2013-09-25 01:04:00,
2013-09-24 20:09:00,55.2,51.7,30.02,NNW,330,0.0,0.0,88,0.00,,,0.00,VWS V12.07,2013-09-25 01:09:00,
2013-09-24 20:14:00,55.1,51.6,30.02,NNW,330,0.0,0.0,88,0.00,,,0.00,VWS V12.07,2013-09-25 01:14:00,
2013-09-24 20:19:00,54.9,51.4,30.03,NNW,330,0.0,0.0,88,0.00,,,0.00,VWS V12.07,2013-09-25 01:19:00,
2013-09-24 20:29:00,54.6,51.4,30.02,NNW,330,0.0,0.0,89,0.00,,,0.00,VWS V12.07,2013-09-25 01:29:00,
2013-09-24 20:39:00,54.2,51.0,30.03,NNW,330,0.0,0.0,89,0.00,,,0.00,VWS V12.07,2013-09-25 01:39:00,
2013-09-24 20:49:00,53.9,51.6,30.03,NNW,330,0.0,0.0,92,0.00,,,0.00,VWS V12.07,2013-09-25 01:49:00,
2013-09-24 20:54:00,53.8,50.6,30.02,NNW,330,0.0,0.0,89,0.00,,,0.00,VWS V12.07,2013-09-25 01:54:00,
2013-09-24 20:59:00,53.7,50.8,30.03,NNW,330,0.0,0.0,90,0.00,,,0.00,VWS V12.07,2013-09-25 01:59:00,
2013-09-24 21:04:00,53.5,50.6,30.03,NNW,330,0.0,0.0,90,0.00,,,0.00,VWS V12.07,2013-09-25 02:04:00,
2013-09-24 21:14:00,53.2,50.3,30.03,NNW,330,0.0,0.0,90,0.00,,,0.00,VWS V12.07,2013-09-25 02:14:00,
2013-09-24 21:19:00,53.0,50.2,30.03,NNW,330,0.0,0.0,90,0.00,,,0.00,VWS V12.07,2013-09-25 02:19:00,
2013-09-24 21:24:00,52.8,50.0,30.03,NNW,330,0.0,0.0,90,0.00,,,0.00,VWS V12.07,2013-09-25 02:24:00,
2013-09-24 21:29:00,52.7,50.2,30.03,NNW,330,0.0,0.0,91,0.00,,,0.00,VWS V12.07,2013-09-25 02:29:00,
2013-09-24 21:34:00,52.5,50.0,30.03,NNW,330,0.0,0.0,91,0.00,,,0.00,VWS V12.07,2013-09-25 02:34:00,
2013-09-24 21:44:00,52.1,49.6,30.04,NNW,330,0.0,0.0,91,0.00,,,0.00,VWS V12.07,2013-09-25 02:44:00,
2013-09-24 21:49:00,52.0,49.5,30.04,NNW,330,0.0,0.0,91,0.00,,,0.00,VWS V12.07,2013-09-25 02:49:00,
2013-09-24 21:54:00,51.8,49.3,30.04,NNW,330,0.0,0.0,91,0.00,,,0.00,VWS V12.07,2013-09-25 02:54:00,
2013-09-24 22:04:00,51.5,49.0,30.04,NNW,330,0.0,0.0,91,0.00,,,0.00,VWS V12.07,2013-09-25 03:04:00,
2013-09-24 22:14:00,51.2,49.0,30.04,NNW,330,0.0,0.0,92,0.00,,,0.00,VWS V12.07,2013-09-25 03:14:00,
2013-09-24 22:24:00,51.0,48.8,30.04,NNW,330,0.0,0.0,92,0.00,,,0.00,VWS V12.07,2013-09-25 03:24:00,
2013-09-24 22:29:00,50.9,48.7,30.04,NNW,330,0.0,0.0,92,0.00,,,0.00,VWS V12.07,2013-09-25 03:29:00,
2013-09-24 22:34:00,50.8,48.6,30.04,NNW,330,0.0,0.0,92,0.00,,,0.00,VWS V12.07,2013-09-25 03:34:00,
2013-09-24 22:39:00,50.7,48.5,30.04,NNW,330,0.0,0.0,92,0.00,,,0.00,VWS V12.07,2013-09-25 03:39:00,
2013-09-24 22:44:00,50.6,48.4,30.04,NNW,330,0.0,0.0,92,0.00,,,0.00,VWS V12.07,2013-09-25 03:44:00,
2013-09-24 22:49:00,50.6,48.7,30.04,NNW,330,0.0,0.0,93,0.00,,,0.00,VWS V12.07,2013-09-25 03:49:00,
2013-09-24 22:54:00,50.6,48.7,30.04,NNW,330,0.0,0.0,93,0.00,,,0.00,VWS V12.07,2013-09-25 03:54:00,
2013-09-24 23:04:00,50.5,48.6,30.04,NNW,330,0.0,0.0,93,0.00,,,0.00,VWS V12.07,2013-09-25 04:04:00,
2013-09-24 23:09:00,50.5,48.6,30.04,NNW,330,0.0,0.0,93,0.00,,,0.00,VWS V12.07,2013-09-25 04:09:00,
2013-09-24 23:14:00,50.4,48.5,30.04,NNW,330,0.0,0.0,93,0.00,,,0.00,VWS V12.07,2013-09-25 04:14:00,
2013-09-24 23:24:00,50.4,48.5,30.04,NNW,330,0.0,0.0,93,0.00,,,0.00,VWS V12.07,2013-09-25 04:24:00,
2013-09-24 23:29:00,50.4,48.5,30.04,NNW,330,0.0,0.0,93,0.00,,,0.00,VWS V12.07,2013-09-25 04:29:00,
2013-09-24 23:34:00,50.4,48.5,30.04,NNW,330,0.0,0.0,93,0.00,,,0.00,VWS V12.07,2013-09-25 04:34:00,
2013-09-24 23:39:00,50.3,48.4,30.04,NNW,330,0.0,0.0,93,0.00,,,0.00,VWS V12.07,2013-09-25 04:39:00,
2013-09-24 23:44:00,50.3,48.4,30.04,NNW,330,0.0,0.0,93,0.00,,,0.00,VWS V12.07,2013-09-25 04:44:00,
2013-09-24 23:49:00,50.2,48.5,30.04,NNW,330,0.0,0.0,94,0.00,,,0.00,VWS V12.07,2013-09-25 04:49:00,
2013-09-24 23:59:00,50.1,48.4,30.04,NNW,330,0.0,0.0,94,0.00,,,0.00,VWS V12.07,2013-09-25 04:59:00,